Location: Newark
(43.0000°N, 1.6781°W)
Time: 17:01:55
(UTC+00:00)

PRISM - Pass Details

Date: 08 December 2022
Orbit: 544 x 572 km, 98.3° (Epoch: 05 February)

Event Time Altitude Azimuth Distance (km) Brightness Sun altitude
Rises 04:58:14 0° 30° (NNE) 2,799 ? -26.0°
Reaches altitude 10° 05:00:58 10° 49° (NE) 1,897 ? -25.5°
Drops below altitude 10° 05:06:40 10° 138° (SE) 1,886 ? -24.5°
Maximum altitude 06:38:51 38° 290° (WNW) 894 ? -8.4°
Sets 06:44:52 0° 214° (SW) 2,779 ? -7.3°
